Temperature
7 5 5 6 6 7 7 6 6 7 7 7 6 6 6 7 7 7 7 8 8 8 9 9 9 9 9 9 9 9 9 10 10 9 9 9 9 10 9 9 10 10 10 10
5 5 6 6 6 6 6 6 6 6 7 7 5 6 6 6 6 7 7 7 8 8 8 8 8 9 9 9 9 9 9 9 9 9 9 9 9 9 9 9 9 9 9 9
5 6 6 6 6 6 6 5 5 6 6 6 5 5 5 6 7 7 7 7 7 7 7 8 8 8 8 9 9 9 9 9 9 9 9 9 9 9 9 9 9 9 9 9
5 6 6 6 6 6 5 6 6 6 5 4 5 4 5 5 5 6 6 6 7 7 7 7 8 8 8 8 8 8 8 8 8 8 8 9 8 8 9 8 8 8 8 8
5 5 6 6 6 6 5 6 5 5 4 3 3 3 4 4 4 5 5 6 6 7 7 7 7 7 8 8 8 8 8 8 8 8 8 8 8 8 8 8 8 8 8 8
5 5 6 5 6 6 5 5 4 3 2 3 3 3 3 3 4 4 5 5 6 6 6 7 7 7 7 7 7 7 8 8 8 8 8 8 8 7 7 7 7 7 7 7
4 4 5 5 5 5 4 3 3 2 2 2 3 3 3 4 4 4 4 5 5 6 6 6 6 6 6 6 6 7 7 7 7 7 7 7 7 7 7 7 7 7 7 7
3 3 4 4 4 4 3 3 2 2 2 2 3 2 3 4 4 5 5 5 5 5 5 6 6 6 6 6 6 6 6 7 7 7 7 7 7 6 6 6 6 6 6 6
2 3 4 4 4 4 3 2 3 1 1 1 2 2 3 4 3 3 4 4 4 5 5 5 5 5 5 5 6 6 6 6 6 6 6 6 6 6 6 6 6 6 6 6
2 2 3 3 4 4 3 2 1 1 2 2 2 2 2 3 3 3 2 3 3 4 4 4 4 4 5 5 5 5 5 5 5 5 5 6 6 6 5 5 5 5 5 5
2 1 1 2 2 2 2 2 1 0 0 1 1 2 3 3 3 2 2 3 3 3 4 4 4 4 4 4 4 4 4 5 5 5 5 5 5 5 5 5 5 5 5 5
1 0 0 1 2 2 2 2 1 1 0 -0 1 2 3 2 2 2 2 3 3 3 3 3 3 3 3 3 3 3 4 4 4 4 4 4 4 4 4 4 4 4 4 4
1 -0 0 1 1 1 1 1 0 -0 -1 -1 -0 2 3 2 2 3 2 3 3 2 2 2 3 3 3 3 3 3 3 3 3 4 4 3 4 4 4 4 4 4 4 4
1 -1 0 2 2 0 0 0 -0 -1 -1 -1 -0 1 2 1 1 1 2 2 2 2 2 2 2 2 2 2 2 2 2 3 3 3 3 3 3 3 3 3 3 3 3 3
0 -1 -1 -1 0 0 -0 0 -0 -1 -1 -0 0 0 1 1 1 1 2 2 1 1 1 1 1 1 2 2 2 2 2 2 2 2 3 2 2 2 3 3 3 3 3 3
-1 -1 -1 -1 -0 -1 -1 -0 -0 -0 -0 -1 -0 0 1 1 1 1 1 1 1 1 1 1 1 1 1 1 1 1 1 1 2 2 2 2 2 2 2 2 2 2 2 2
-2 -2 -2 -1 -1 -1 -1 -1 -0 -1 -1 -1 -0 0 0 0 0 1 1 1 1 1 1 1 1 1 1 1 1 1 1 1 1 1 1 1 1 1 1 1 1 1 2 2
-2 -3 -3 -3 -2 -1 1 0 -0 -0 -1 -1 -1 -0 -0 0 1 1 1 1 1 1 1 1 0 0 0 0 0 0 1 1 1 1 1 0 0 0 0 1 1 1 1 1
-2 -2 -3 -3 -3 -2 -0 -0 -1 -1 -1 -1 -1 -1 -0 -0 -0 0 1 1 1 1 1 0 0 0 0 0 0 0 0 0 -0 -0 0 0 -0 -0 -0 -0 0 0 0 0
-3 -3 -4 -4 -3 -2 0 0 0 -1 -1 -1 -1 -1 -1 -1 -2 -1 1 1 1 1 0 0 -0 -0 -0 -0 -0 -0 -0 -0 -0 -0 -0 -0 -1 -1 -1 -0 -0 -0 -0 -0
-4 -4 -4 -4 -4 -2 -1 -1 -0 -1 -0 0 0 -0 -1 -1 -1 0 0 0 0 0 -0 -0 -0 -1 -1 -1 -1 -1 -1 -1 -1 -1 -1 -1 -1 -1 -1 -1 -1 -1 -1 -1
-3 -4 -4 -4 -4 -2 -1 -1 -1 -1 1 1 1 1 -0 -0 -0 -0 -0 -0 -0 -1 -1 -1 -1 -1 -1 -1 -1 -1 -1 -1 -1 -1 -2 -2 -2 -2 -2 -1 -1 -2 -2 -2
-4 -3 -3 -3 -2 -1 -0 -0 1 1 1 1 1 1 0 -0 -0 -0 -1 -1 -1 -1 -1 -1 -1 -1 -1 -2 -2 -2 -2 -2 -2 -2 -2 -2 -2 -2 -2 -2 -2 -2 -2 -2
-4 -4 -4 -4 -3 -2 -1 0 1 1 1 1 0 0 -0 -0 -1 -1 -1 -1 -1 -1 -2 -2 -2 -2 -2 -2 -2 -2 -2 -2 -3 -3 -3 -3 -3 -3 -3 -3 -3 -2 -3 -3
-4 -5 -5 -4 -4 -2 -1 0 1 0 0 0 -0 -0 -0 -1 -1 -1 -1 -1 -2 -2 -2 -2 -2 -2 -2 -3 -3 -3 -3 -3 -3 -3 -3 -3 -3 -3 -3 -3 -3 -3 -3 -3
-4 -4 -4 -3 -2 -3 -1 0 0 -0 -0 -0 -0 -1 -1 -1 -1 -1 -2 -2 -2 -2 -2 -2 -3 -3 -3 -3 -3 -3 -3 -3 -3 -3 -3 -3 -4 -4 -4 -4 -3 -3 -3 -3
Wind_Speed
2 3 3 6 6 4 4 4 6 7 5 3 6 9 11 7 4 5 5 5 5 6 4 2 1 1 1 2 2 3 3 3 3 2 3 2 2 2 1 0 2 4 5 5
3 3 7 4 2 2 3 4 5 6 4 2 5 10 10 7 5 6 6 6 6 4 3 2 1 0 2 2 2 3 3 4 4 3 3 3 3 2 2 1 1 3 4 5
5 4 2 2 2 3 4 5 5 5 6 3 3 8 7 6 5 5 4 4 4 4 3 3 2 2 2 3 3 3 3 4 3 3 2 2 2 1 0 1 2 1 3 4
3 3 1 2 3 3 5 4 4 3 3 4 1 5 8 6 6 6 5 4 4 4 3 3 3 3 4 4 3 3 3 3 3 3 4 5 4 3 2 2 2 1 2 3
4 2 2 3 4 4 4 2 2 2 2 3 2 3 8 5 6 8 6 5 4 4 3 3 3 4 3 3 2 2 2 2 3 3 5 5 3 2 1 1 2 2 1 2
3 2 2 3 2 2 1 3 4 3 3 3 5 4 7 4 5 6 5 5 5 3 3 3 2 1 0 0 0 1 2 2 2 3 4 5 5 3 3 3 3 2 1 1
3 3 2 1 1 2 3 4 3 4 2 6 3 4 7 6 6 4 4 4 3 3 2 2 1 0 0 0 0 0 1 2 2 2 3 4 5 5 5 5 4 3 2 1
2 5 3 1 3 3 3 6 5 5 5 5 2 6 7 5 5 3 2 3 3 3 2 2 2 2 1 1 1 1 2 2 2 2 2 3 4 4 4 4 4 4 3 2
4 5 3 2 1 5 3 3 4 4 1 3 5 6 6 3 5 4 4 4 4 3 3 2 2 1 1 1 2 2 2 1 2 2 2 2 3 3 4 3 3 2 2 2
4 3 3 2 1 0 3 5 3 3 3 4 5 5 4 4 4 4 4 3 4 4 4 3 2 1 1 1 1 0 0 1 1 1 1 1 2 2 3 3 3 2 2 2
3 3 3 1 3 4 2 2 3 3 4 4 4 6 4 4 3 3 4 3 3 4 4 3 2 1 1 1 0 0 0 1 0 1 1 0 0 1 2 3 3 3 2 2
2 3 3 5 3 2 4 4 4 4 4 4 3 6 5 3 2 2 3 4 4 3 3 3 3 2 1 1 1 1 1 1 1 0 0 1 1 1 2 2 2 3 3 2
3 4 1 3 2 1 1 2 3 3 2 4 4 7 3 3 4 3 3 3 3 3 3 4 3 2 2 2 1 1 1 1 1 1 1 1 1 1 1 2 2 3 3 2
3 3 6 8 6 3 3 4 3 4 4 5 8 9 9 7 6 6 5 4 4 3 3 3 3 3 2 2 2 1 2 1 1 1 1 1 0 1 1 1 2 2 3 2
4 3 4 6 5 3 5 7 6 8 8 8 9 9 11 8 7 6 5 4 4 4 3 3 3 3 2 2 2 2 2 2 1 1 1 1 1 0 0 1 2 2 2 2
3 2 2 4 3 3 6 9 9 10 8 9 9 11 10 7 5 5 5 5 5 5 4 4 3 4 3 3 2 2 2 2 1 1 1 1 1 1 0 0 1 2 2 2
3 3 2 3 3 2 6 8 9 6 6 7 11 11 6 5 6 6 6 6 6 5 5 4 4 4 4 3 3 2 3 2 1 1 1 1 1 1 1 1 1 2 2 2
5 4 2 1 2 6 7 3 6 7 8 7 8 7 6 7 7 6 5 5 6 5 5 5 4 4 4 3 3 2 2 1 1 1 1 0 1 1 1 1 1 1 2 2
5 5 3 2 3 7 7 3 4 5 7 7 9 8 7 4 3 4 4 3 5 5 5 4 4 4 3 3 2 2 1 1 1 1 1 1 1 1 1 1 1 1 1 2
3 4 4 3 3 7 6 3 2 3 6 5 6 7 5 0 2 5 4 3 4 4 3 2 2 2 2 3 2 1 1 2 2 3 2 2 2 2 2 2 2 1 1 2
3 3 5 5 5 8 6 2 4 3 7 3 5 6 4 5 6 5 4 4 3 3 3 2 2 2 3 3 2 1 2 3 3 2 2 2 2 2 2 2 1 2 2 1
7 6 6 5 5 9 4 5 6 7 3 2 3 4 5 5 5 4 4 4 3 2 2 2 2 2 3 2 2 2 3 3 2 2 1 1 2 2 1 1 1 1 2 2
7 8 6 9 9 5 5 7 6 3 4 4 4 4 4 4 4 4 3 3 3 3 3 2 2 2 3 2 2 2 3 3 2 1 2 2 2 1 1 2 2 1 1 2
4 3 4 5 8 7 6 6 5 4 5 5 4 4 4 4 5 4 4 3 3 3 3 2 2 2 3 3 2 3 3 2 2 2 2 2 1 1 1 1 2 2 2 2
6 5 4 6 7 5 7 7 7 6 5 4 4 4 5 5 5 4 4 4 4 3 3 2 2 3 3 3 3 3 2 2 2 2 2 2 2 2 2 2 2 3 3 4
6 7 7 8 7 6 6 5 5 6 6 6 5 5 4 5 5 5 5 4 4 3 3 2 3 3 3 3 3 3 2 2 2 2 2 2 2 2 2 2 2 3 4 5
Wind_Direction
89 94 203 220 207 204 198 222 258 267 272 253 252 267 276 279 270 261 261 261 260 258 269 271 245 186 168 181 182 185 172 170 160 166 162 181 202 196 184 214 168 154 155 153
74 238 238 231 215 229 242 265 275 289 315 287 276 280 277 264 250 247 249 253 254 269 311 312 300 204 205 193 202 202 191 182 186 191 187 186 180 188 184 184 169 156 156 158
182 234 225 168 193 218 246 225 246 273 319 325 307 301 290 289 268 269 263 252 252 236 241 253 254 236 228 211 210 214 204 191 192 188 158 127 109 92 112 213 193 171 161 158
229 265 198 188 224 201 248 232 234 268 308 292 288 288 288 291 298 287 277 269 256 249 249 249 240 235 231 223 215 211 205 190 188 174 169 169 174 186 212 206 199 182 167 164
240 232 200 223 234 193 216 255 252 255 234 292 268 237 285 311 298 287 275 267 255 248 241 248 241 230 227 216 208 206 189 184 189 182 178 175 177 183 173 173 174 178 184 172
255 260 205 213 245 177 162 28 22 36 74 272 234 200 281 273 271 293 281 271 262 257 246 252 265 268 282 251 159 152 170 194 198 185 184 181 178 174 166 182 180 183 196 185
316 302 291 141 76 29 88 87 23 352 328 252 243 210 253 262 271 263 267 282 278 270 258 267 293 337 323 290 257 163 177 215 216 191 195 190 185 181 185 190 185 183 189 206
193 272 251 220 188 194 188 154 167 207 233 275 278 234 253 277 295 294 289 306 313 308 288 249 231 212 200 220 242 227 220 230 225 207 216 195 183 184 190 191 181 187 195 197
186 248 291 268 251 155 159 193 175 155 209 269 265 276 291 316 343 349 354 357 339 323 316 284 258 232 211 225 235 227 223 228 228 224 224 205 194 182 183 179 168 174 184 185
160 233 279 292 40 15 161 149 114 147 194 252 275 265 257 282 306 330 342 333 324 330 333 323 295 283 259 244 260 275 213 217 225 208 214 207 205 178 167 161 163 161 169 173
148 171 288 320 196 196 148 153 161 165 184 195 257 268 236 228 258 286 298 309 312 316 320 320 312 304 309 0 11 21 21 29 240 214 210 182 194 152 143 152 166 169 170 170
156 149 227 253 267 215 182 182 159 180 235 208 225 267 277 250 275 286 292 306 313 317 326 335 341 349 4 2 349 348 343 11 302 247 157 138 113 110 143 159 173 169 165 176
148 136 83 335 325 343 218 205 180 156 158 193 210 260 301 336 336 316 301 303 313 326 337 338 348 353 346 331 330 339 342 334 344 72 91 87 99 119 159 176 175 167 157 153
139 155 189 212 229 208 241 242 201 162 199 228 231 256 286 304 311 310 304 300 303 300 313 332 339 334 334 326 308 312 323 319 340 93 113 124 178 195 185 172 165 166 159 152
121 197 227 252 260 228 230 239 218 210 214 220 245 250 268 270 269 274 280 294 302 296 299 305 316 321 324 331 324 315 314 314 309 133 133 200 208 182 120 137 164 161 157 159
136 186 219 274 263 240 261 254 234 231 230 237 259 268 265 268 264 268 275 279 274 275 279 288 303 313 316 308 304 307 307 303 281 197 196 198 165 156 168 171 161 155 154 143
165 155 169 260 305 343 271 241 219 220 220 206 234 251 271 279 271 263 263 260 255 257 265 270 278 284 291 292 285 282 287 299 285 231 225 205 189 183 205 191 159 175 176 151
162 152 169 229 38 238 246 228 205 219 238 227 245 262 257 257 266 262 251 247 250 253 258 264 271 276 283 288 291 288 301 305 293 279 260 220 195 204 207 183 184 199 179 167
164 155 158 171 235 272 284 256 195 207 257 231 238 261 270 278 303 287 262 248 252 252 255 256 256 262 277 284 287 305 322 310 284 260 249 232 205 218 220 221 223 210 187 195
115 134 152 169 204 241 253 249 182 135 273 248 224 245 252 203 285 275 282 287 281 278 272 268 270 280 277 281 281 297 301 293 277 260 248 240 215 222 231 233 241 245 218 223
146 157 183 194 226 261 258 233 127 173 251 258 221 234 226 220 236 263 286 286 276 274 275 273 266 264 271 277 276 283 293 285 284 276 262 257 238 232 231 234 242 233 229 222
176 176 190 177 209 251 230 151 187 224 253 244 240 233 230 243 264 276 280 284 280 276 281 270 264 277 285 281 269 281 286 293 298 286 266 260 260 250 236 215 239 233 208 208
200 194 190 197 217 237 193 203 224 212 229 242 243 244 227 244 261 271 275 277 275 274 277 281 266 277 288 280 256 269 287 298 296 289 281 272 267 259 236 221 226 239 220 216
244 202 192 235 256 253 245 247 251 237 232 240 238 238 221 236 253 263 269 276 276 278 276 280 265 271 287 295 290 273 277 279 273 272 279 275 260 263 261 243 225 223 224 226
222 187 207 244 264 287 267 245 244 246 241 245 252 243 231 230 247 248 258 268 269 274 274 262 248 255 271 287 296 292 269 249 261 267 267 266 264 256 261 263 243 233 236 229
212 192 199 231 229 220 250 254 240 235 243 240 244 255 249 231 240 248 254 259 260 263 265 267 268 266 274 284 292 291 274 243 237 256 256 253 252 248 247 258 288 272 254 255
Height
1506 1510 1512 1510 1509 1509 1511 1512 1512 1509 1505 1506 1505 1502 1497 1495 1494 1492 1491 1490 1489 1489 1489 1489 1490 1490 1491 1492 1492 1493 1493 1494 1495 1496 1497 1498 1499 1500 1501 1502 1503 1504 1506 1507
1509 1511 1507 1506 1508 1509 1510 1512 1512 1508 1504 1505 1504 1500 1494 1492 1491 1489 1487 1486 1486 1485 1486 1486 1486 1486 1487 1488 1489 1490 1490 1491 1492 1493 1494 1495 1496 1497 1498 1499 1500 1502 1503 1504
1507 1507 1504 1506 1508 1509 1510 1512 1511 1509 1506 1504 1505 1500 1492 1488 1487 1486 1485 1484 1484 1484 1483 1483 1482 1482 1483 1484 1485 1486 1487 1488 1489 1490 1491 1492 1493 1494 1495 1496 1496 1498 1500 1501
1506 1504 1504 1505 1506 1507 1510 1506 1507 1507 1511 1512 1508 1511 1495 1489 1486 1483 1482 1481 1481 1481 1480 1479 1479 1479 1479 1480 1481 1483 1484 1485 1485 1486 1488 1489 1490 1490 1491 1493 1494 1495 1496 1498
1505 1503 1503 1504 1504 1504 1506 1504 1506 1507 1511 1515 1511 1514 1499 1490 1488 1483 1480 1478 1478 1478 1477 1476 1476 1476 1477 1477 1478 1479 1481 1482 1483 1483 1485 1486 1487 1488 1489 1490 1491 1492 1493 1495
1504 1502 1501 1501 1501 1502 1503 1506 1508 1512 1516 1519 1510 1513 1501 1494 1487 1481 1478 1476 1475 1475 1474 1474 1473 1473 1474 1474 1475 1476 1478 1479 1480 1480 1482 1483 1484 1485 1486 1487 1488 1490 1491 1492
1506 1503 1501 1501 1503 1504 1505 1513 1521 1522 1525 1517 1506 1506 1498 1486 1482 1479 1477 1475 1474 1473 1472 1472 1471 1470 1471 1471 1472 1473 1474 1475 1476 1477 1479 1480 1481 1482 1483 1485 1486 1487 1488 1489
1510 1509 1502 1500 1501 1504 1506 1510 1520 1524 1524 1515 1507 1505 1492 1483 1480 1478 1476 1474 1473 1472 1471 1470 1470 1469 1469 1469 1470 1470 1471 1472 1473 1475 1476 1477 1478 1479 1481 1482 1483 1484 1485 1487
1509 1507 1501 1499 1498 1501 1505 1509 1509 1518 1521 1520 1509 1500 1488 1481 1479 1477 1475 1474 1472 1471 1470 1469 1468 1468 1468 1468 1468 1468 1469 1469 1471 1472 1473 1474 1476 1476 1478 1479 1480 1481 1483 1484
1504 1509 1502 1500 1498 1499 1502 1505 1512 1517 1518 1515 1506 1501 1492 1483 1480 1478 1476 1474 1473 1471 1470 1468 1467 1466 1466 1466 1466 1466 1467 1467 1468 1470 1471 1472 1473 1473 1475 1476 1477 1478 1480 1481
1502 1508 1506 1502 1501 1501 1503 1506 1508 1514 1515 1514 1510 1498 1483 1481 1478 1477 1476 1474 1473 1471 1469 1467 1466 1465 1465 1465 1464 1464 1465 1465 1466 1467 1468 1469 1470 1471 1472 1473 1474 1476 1477 1478
1500 1506 1509 1505 1500 1499 1499 1502 1506 1511 1512 1513 1510 1498 1478 1477 1476 1476 1475 1474 1473 1471 1469 1467 1466 1465 1464 1463 1463 1463 1463 1463 1464 1464 1465 1466 1467 1468 1469 1470 1472 1473 1474 1475
1499 1505 1509 1505 1505 1502 1501 1501 1503 1506 1511 1514 1511 1496 1478 1476 1476 1475 1474 1473 1471 1470 1468 1467 1465 1464 1463 1462 1461 1461 1461 1461 1462 1462 1462 1463 1464 1465 1466 1467 1469 1470 1471 1472
1494 1502 1504 1501 1496 1499 1501 1499 1501 1505 1509 1508 1500 1489 1480 1478 1476 1475 1473 1472 1470 1468 1467 1465 1464 1463 1462 1461 1460 1460 1460 1460 1460 1460 1460 1461 1461 1462 1463 1464 1466 1467 1468 1469
1494 1501 1501 1498 1495 1496 1496 1495 1496 1499 1497 1498 1489 1487 1479 1477 1476 1474 1472 1470 1469 1467 1466 1464 1463 1461 1460 1459 1459 1458 1458 1458 1458 1458 1458 1458 1459 1460 1461 1462 1463 1464 1465 1466
1494 1499 1500 1498 1494 1495 1494 1490 1490 1490 1490 1489 1486 1482 1474 1473 1473 1471 1470 1468 1467 1465 1464 1462 1461 1460 1458 1457 1457 1456 1455 1455 1455 1455 1455 1456 1457 1457 1458 1458 1459 1460 1461 1462
1494 1498 1501 1499 1497 1495 1493 1484 1483 1484 1482 1483 1482 1475 1471 1471 1470 1468 1466 1465 1463 1462 1462 1460 1459 1457 1456 1455 1455 1454 1453 1453 1453 1452 1453 1454 1454 1455 1455 1455 1456 1457 1458 1459
1492 1496 1501 1502 1502 1499 1481 1475 1475 1476 1475 1475 1473 1470 1469 1467 1466 1464 1463 1462 1461 1460 1459 1458 1457 1455 1454 1453 1453 1452 1451 1451 1450 1450 1450 1451 1452 1452 1452 1453 1453 1454 1455 1456
1486 1493 1501 1504 1503 1493 1478 1473 1474 1476 1473 1468 1468 1466 1465 1465 1463 1461 1460 1459 1458 1457 1456 1455 1454 1453 1452 1451 1451 1450 1449 1449 1448 1448 1448 1449 1449 1449 1449 1450 1450 1451 1452 1452
1487 1490 1498 1502 1500 1492 1473 1469 1468 1472 1471 1463 1463 1462 1462 1463 1465 1460 1457 1456 1455 1454 1454 1452 1451 1451 1450 1449 1448 1448 1447 1447 1446 1446 1446 1447 1447 1447 1447 1447 1447 1448 1448 1449
1490 1492 1496 1498 1497 1483 1469 1467 1468 1476 1468 1460 1459 1458 1459 1459 1458 1456 1454 1453 1452 1452 1451 1450 1449 1448 1447 1447 1446 1445 1444 1444 1444 1444 1444 1444 1444 1444 1444 1444 1444 1445 1445 1446
1482 1487 1491 1493 1494 1481 1464 1465 1467 1462 1458 1457 1456 1456 1456 1455 1454 1453 1452 1450 1450 1449 1448 1447 1446 1445 1445 1444 1443 1442 1442 1442 1442 1442 1442 1441 1441 1441 1441 1441 1441 1442 1442 1443
1475 1473 1474 1474 1469 1460 1459 1458 1456 1456 1455 1455 1454 1453 1453 1452 1451 1450 1449 1448 1447 1446 1445 1445 1443 1442 1442 1441 1441 1440 1439 1439 1439 1439 1438 1438 1438 1438 1438 1438 1438 1439 1439 1440
1468 1466 1468 1467 1460 1456 1455 1454 1454 1453 1453 1452 1451 1451 1450 1449 1448 1447 1446 1445 1444 1443 1443 1442 1441 1440 1439 1438 1438 1437 1437 1436 1436 1435 1435 1435 1435 1435 1435 1435 1435 1436 1436 1436
1460 1463 1463 1461 1455 1453 1450 1450 1450 1450 1449 1449 1448 1448 1447 1446 1445 1444 1443 1442 1441 1440 1440 1439 1438 1437 1436 1435 1434 1434 1434 1434 1433 1432 1432 1432 1432 1432 1431 1432 1432 1432 1433 1433
1452 1455 1457 1452 1448 1449 1446 1446 1446 1445 1445 1444 1444 1443 1443 1443 1442 1441 1440 1439 1438 1437 1436 1435 1434 1433 1433 1432 1431 1431 1431 1430 1430 1429 1429 1429 1429 1429 1428 1428 1428 1429 1429 1430